Location: Rancho Del Sol Observatory
(38.7214°N, 120.6350°W)
Time: 03:24:02
(UTC-08:00)

A-11 Canister half - Pass Details

Date: 02 February 2020
Orbit: 1517 x 1683 km, 47.2° (Epoch: 25 February)

Event Time Altitude Azimuth Distance (km) Brightness Sun altitude
Exits shadow 04:02:35 57° 173° (S) 1,745 9.1 -36.3°
Drops below altitude 10° 04:10:03 10° 139° (SE) 3,695 11.3 -34.9°
Sets 04:13:08 0° 137° (SE) 4,691 12.0 -34.3°
